Location: Byhalia Creek
(34.8270°N, 89.8040°W)
Time: 08:23:27
(UTC+00:00)

Meteor 2-14 Rocket - Pass Details

Date: 22 April 2026
Orbit: 938 x 956 km, 82.5° (Epoch: 15 May)

Event Time Altitude Azimuth Distance (km) Brightness Sun altitude
Rises 01:31:39 0° 357° (N) 3,620 7.9 -11.5°
Reaches altitude 10° 01:34:11 10° 1° (N) 2,675 7.1 -12.0°
Maximum altitude 01:40:14 62° 81° (E) 1,060 4.5 -13.1°
Drops below altitude 10° 01:46:17 10° 162° (SSE) 2,670 6.4 -14.2°
Enters shadow 01:47:08 - 164° (SSE) 2,984 6.7 -14.4°
